Wind_Speed
13 13 13 14 14 13 13 14 15 13 11 11 10 10 9 9 9 10 11 12 13 13 14 14 14 15 15 14 14 14 14 15 15 16 16 16 17 17 17 18 17 16 16 16 15 15 14 14 13 12 11 10 9 9 9 8 8 7 7 6 5 5 5 3 3 4 4 3 3 3 3 3 2 2 3 3 3 3 3 4 4 4 4 3 3
13 13 13 13 13 13 13 12 12 13 12 12 11 10 10 9 9 9 10 10 11 12 13 14 14 14 14 14 14 14 15 15 16 17 16 16 16 17 18 18 18 17 16 16 16 16 15 14 14 13 12 11 10 9 10 9 8 8 8 7 6 6 6 5 4 4 4 4 4 4 4 3 3 3 3 3 3 3 3 4 5 6 5 5 4
13 13 12 12 12 12 13 12 12 14 14 13 12 11 10 9 9 9 9 10 11 12 13 13 13 13 13 14 15 15 15 16 17 17 17 16 17 17 18 18 18 17 17 16 16 16 16 15 15 14 13 12 11 10 11 10 10 10 9 8 7 6 6 6 5 5 5 5 4 3 4 4 4 5 5 6 6 5 5 6 6 6 6 6 6
13 13 12 12 12 13 13 13 12 13 14 14 13 13 12 11 10 11 11 11 12 13 13 12 12 12 13 14 16 16 16 17 18 18 18 17 17 17 17 17 17 17 17 17 17 17 17 16 15 15 14 13 12 11 11 11 11 11 10 9 8 6 6 7 7 7 7 5 4 4 5 4 5 6 7 8 8 8 7 8 8 7 7 8 8
12 13 13 13 13 12 12 12 11 12 14 15 15 15 15 13 12 13 13 12 13 14 14 12 11 11 12 14 15 16 16 17 17 18 18 18 18 18 17 17 17 17 17 17 18 18 17 17 16 15 15 14 13 12 12 12 12 12 11 11 9 8 7 8 9 9 7 5 4 5 5 4 5 7 8 9 10 9 9 9 9 10 10 11 11
12 13 13 13 13 13 12 12 11 11 13 14 15 15 15 13 12 13 12 12 13 14 15 13 11 11 13 14 14 15 15 15 16 17 18 18 19 19 18 17 17 17 17 17 18 18 18 17 16 16 15 15 14 13 12 12 13 13 13 12 11 9 9 9 10 10 8 7 6 7 7 7 7 9 9 9 10 11 11 11 12 12 13 14 14
11 12 12 12 12 12 12 12 12 12 12 13 14 13 11 10 10 10 11 12 13 15 16 15 13 13 14 14 14 14 14 14 15 17 18 19 19 19 19 19 18 18 18 17 18 18 18 18 17 17 16 15 14 14 13 13 14 14 14 13 12 11 11 10 11 10 9 9 9 10 10 10 10 11 11 12 12 12 12 12 13 14 14 14 15
9 10 10 10 10 10 11 11 11 11 11 11 10 9 8 8 9 11 13 14 16 17 17 15 14 14 15 14 15 15 15 15 16 17 19 19 20 19 19 19 19 19 18 18 18 18 19 18 18 17 17 16 15 15 14 14 14 14 15 15 14 14 13 12 12 11 11 11 11 12 13 13 13 14 14 14 15 15 14 14 14 15 14 14 15
6 6 7 8 9 9 9 9 9 9 9 9 8 7 8 9 11 13 14 14 16 16 16 16 16 16 16 16 15 16 17 17 17 18 19 20 21 20 19 20 20 20 20 19 19 19 19 19 19 19 18 18 17 17 16 15 15 15 15 16 16 15 15 14 14 13 13 13 13 13 14 14 14 14 15 16 17 17 17 16 17 17 16 16 16
4 5 5 6 7 8 8 7 7 6 6 6 6 7 8 9 10 11 12 12 13 14 14 16 17 17 17 17 16 17 18 18 18 19 19 20 21 21 21 21 21 21 20 20 20 20 20 20 20 20 20 19 19 18 17 17 16 16 16 17 17 17 16 16 16 15 15 14 14 14 15 15 14 15 15 16 17 18 18 18 18 18 18 17 18
5 5 5 5 5 6 7 7 7 7 6 6 6 6 7 7 7 8 9 9 10 11 13 14 15 16 16 16 17 18 19 20 20 19 19 20 21 22 22 22 21 21 21 20 21 21 22 22 22 22 21 20 20 19 19 18 18 18 18 18 18 17 17 17 17 17 17 17 16 16 16 16 15 16 16 17 18 19 19 19 19 19 19 19 20
7 6 6 6 6 6 6 7 7 7 7 7 6 6 7 6 6 6 6 7 7 8 9 11 12 13 14 15 17 18 19 20 20 20 20 21 22 23 23 22 22 22 21 22 22 23 23 23 23 23 22 21 21 21 20 20 19 20 20 19 19 19 19 19 20 20 19 19 19 18 18 17 16 17 18 18 19 19 19 19 19 20 20 21 22
9 9 9 9 9 9 9 9 9 9 9 8 8 8 9 9 8 8 8 8 8 8 8 9 10 10 11 12 14 16 17 18 19 20 21 23 24 24 24 24 23 23 23 23 24 24 24 24 24 23 22 22 23 22 21 21 21 21 21 21 21 20 20 21 21 21 20 21 21 21 21 19 18 19 20 20 20 21 20 20 21 21 22 22 24
11 11 11 11 11 11 12 12 12 12 12 12 12 12 12 12 12 12 12 12 12 12 12 12 12 12 12 12 13 15 16 17 18 19 21 23 24 24 25 25 25 24 24 24 25 26 26 25 24 24 23 23 24 23 23 22 22 21 22 23 23 22 22 23 23 22 22 22 22 22 22 21 21 22 23 22 21 20 20 21 22 22 22 23 25
13 13 13 13 13 13 14 14 14 14 14 15 15 15 15 15 15 15 15 15 16 16 16 16 16 16 16 16 16 17 17 17 17 18 19 21 22 24 25 26 26 26 26 27 27 27 27 26 25 24 24 25 25 25 25 24 24 24 24 25 25 24 23 24 25 25 24 23 23 23 24 24 25 26 25 23 21 22 24 25 24 23 24 24 25
14 15 15 15 15 15 15 15 15 15 15 16 16 16 17 17 18 18 18 19 19 19 19 20 20 20 20 20 20 20 21 20 20 19 19 20 21 22 24 25 26 27 28 29 28 27 27 27 27 26 26 26 27 27 27 26 26 27 26 26 27 26 25 26 27 28 27 26 25 25 26 27 28 29 28 25 24 25 27 27 26 26 27 27 26
15 15 15 15 16 16 16 17 17 17 17 17 18 18 18 19 20 20 21 21 22 22 22 23 23 23 23 23 23 23 24 24 23 23 22 21 21 22 23 25 26 26 28 28 28 28 29 29 29 28 28 29 29 29 29 29 29 30 30 29 29 28 28 29 29 29 29 28 27 27 28 29 30 30 29 27 27 28 27 27 28 29 29 29 29
15 15 16 17 17 17 18 18 19 19 19 20 20 20 21 22 22 23 23 24 24 25 25 25 25 26 26 26 26 26 27 27 27 26 26 24 24 24 24 25 26 26 26 27 28 29 30 30 29 29 30 31 32 32 31 31 31 32 32 32 31 31 31 31 30 29 29 29 29 29 30 31 31 31 30 29 30 30 29 29 30 31 31 31 32
15 16 16 17 17 18 19 19 20 20 20 21 21 21 22 22 23 24 25 25 26 27 27 28 28 28 29 29 29 29 29 30 30 30 29 28 27 27 27 27 27 27 26 26 27 29 30 30 30 30 31 32 32 32 32 32 32 32 33 33 32 32 32 32 31 31 31 32 31 31 31 32 33 33 32 31 31 31 31 31 31 31 32 32 32
15 16 16 17 17 18 19 19 20 20 20 21 21 21 21 22 22 23 24 25 26 27 28 28 29 29 30 31 31 31 32 32 33 33 32 32 31 30 29 29 30 30 29 28 28 29 30 30 31 31 32 32 32 32 32 32 32 33 33 32 31 32 32 33 33 33 33 32 31 31 31 31 32 32 32 31 30 30 32 33 31 31 31 31 31
16 16 17 17 18 18 19 20 20 21 21 21 21 22 22 22 23 24 24 25 26 27 28 28 29 30 30 31 31 32 33 34 35 35 34 34 34 33 32 32 32 32 32 31 31 31 30 31 31 31 32 32 32 32 32 32 32 32 31 30 29 29 31 32 32 32 32 31 30 30 30 30 30 31 31 31 30 30 33 34 31 28 29 31 32
17 17 17 18 18 18 19 19 20 21 21 21 22 22 22 23 24 24 25 25 26 26 27 28 29 30 30 31 31 32 33 34 35 36 36 36 36 35 35 34 34 33 33 34 34 33 33 32 32 31 31 32 32 32 32 32 31 31 30 29 29 29 30 31 31 31 30 30 30 30 30 30 30 30 31 31 31 31 32 33 30 29 31 34 34
17 17 17 18 18 18 18 18 19 19 20 20 21 21 21 22 23 23 24 25 25 26 27 27 28 29 30 30 31 32 32 33 34 36 37 37 37 37 37 36 36 35 35 35 35 35 35 34 34 33 32 31 32 32 33 33 32 32 31 31 30 30 30 31 31 31 31 30 30 31 31 31 31 32 32 33 34 33 33 34 33 32 34 36 37
16 16 17 17 17 17 17 17 17 18 18 19 19 19 20 20 21 21 22 23 23 24 25 26 27 27 27 28 30 31 32 33 34 35 36 37 37 38 38 37 37 36 36 35 35 36 36 36 35 35 33 32 32 32 33 33 34 33 33 32 32 31 31 31 32 32 32 32 32 33 33 33 34 34 34 34 35 35 35 35 35 35 36 38 38
16 16 17 17 17 17 16 16 16 16 17 17 18 18 19 19 20 21 21 22 22 23 23 24 25 25 26 26 27 29 30 32 33 34 34 35 36 37 38 38 38 37 37 36 36 36 36 36 36 36 35 33 32 32 33 34 34 34 34 33 32 32 32 32 32 32 33 33 33 33 33 34 34 35 35 35 36 36 36 37 37 37 38 39 39
17 17 17 17 17 17 17 16 16 16 17 17 18 18 18 19 20 21 22 22 23 23 23 24 24 25 25 26 27 27 28 30 31 32 33 34 35 36 36 37 37 37 37 37 36 36 35 35 36 36 35 34 34 34 33 33 34 34 34 34 33 33 32 32 32 32 32 32 32 33 33 34 35 36 37 37 37 37 37 37 37 37 38 38 38
18 18 18 18 18 18 17 17 17 17 17 17 18 18 19 20 21 21 22 23 23 23 23 24 24 25 26 27 27 28 28 29 30 31 32 33 33 34 34 35 35 35 36 36 36 36 35 35 34 34 34 34 34 34 33 32 32 33 33 33 33 33 32 32 31 31 31 32 32 33 34 34 35 36 36 36 36 36 36 35 34 33 33 33 33
18 19 19 19 19 19 18 18 18 17 17 18 18 19 20 21 22 22 23 23 23 24 24 24 25 25 26 27 27 28 29 29 29 29 30 31 31 32 32 33 33 34 34 34 35 35 35 35 34 34 34 34 33 33 32 31 31 31 31 31 30 30 30 30 30 30 31 31 31 31 31 31 32 32 32 32 32 32 31 30 29 28 28 28 28
19 19 20 20 20 19 19 19 19 18 18 19 19 20 21 22 23 23 23 23 24 24 25 25 26 26 26 27 27 28 29 29 29 29 28 29 30 30 30 31 31 32 33 33 34 34 35 35 34 33 33 32 32 31 30 30 29 28 28 28 28 28 28 28 28 28 28 27 27 27 26 26 26 27 27 27 26 26 26 25 24 24 23 23 23
19 20 20 21 20 20 20 19 19 19 19 20 20 21 22 23 23 24 24 23 23 24 25 25 26 26 25 26 26 27 28 28 27 26 26 27 27 28 28 29 29 30 31 32 33 33 33 33 33 32 32 31 30 30 29 28 28 27 27 26 26 26 25 25 25 24 23 22 22 22 22 21 21 21 20 20 20 19 19 19 19 18 18 17 17
21 21 20 20 21 20 20 20 20 20 20 20 21 22 22 23 23 24 23 22 22 23 24 24 25 25 25 25 25 26 26 26 24 23 23 24 24 25 26 27 27 28 29 30 31 32 32 32 32 31 30 30 29 28 28 27 26 26 25 25 24 23 22 21 21 20 20 19 19 18 17 16 15 15 14 14 14 14 14 14 14 14 14 14 14
21 21 21 20 20 20 19 20 20 20 20 20 21 21 22 22 23 22 22 21 21 22 23 23 24 24 24 24 24 24 23 22 20 19 19 19 20 20 21 22 23 24 26 27 28 29 29 30 29 29 28 28 27 27 26 25 24 24 23 22 21 19 19 18 18 17 17 16 15 14 13 12 11 11 11 11 11 11 12 12 12 12 12 12 12
20 21 21 20 19 19 20 20 20 20 20 19 20 21 21 22 22 22 22 22 22 22 21 21 22 22 22 22 22 21 20 19 17 16 15 15 15 16 16 17 18 19 21 23 24 25 25 26 26 26 25 25 25 24 23 22 21 20 19 18 17 16 16 15 15 14 14 13 11 10 10 10 10 10 11 11 12 12 13 13 13 12 12 12 11
19 20 20 19 19 19 20 20 20 20 20 19 20 21 21 21 21 22 22 22 22 22 21 20 20 20 19 19 18 18 17 17 16 15 14 14 14 14 14 14 15 15 16 17 19 20 20 21 21 22 22 21 21 20 19 18 17 16 15 15 14 13 13 12 12 11 11 10 9 9 10 10 11 11 12 13 13 14 14 13 13 12 12 12 12
18 18 18 19 19 19 20 20 20 20 20 20 20 20 21 21 21 22 22 23 22 21 20 19 18 18 17 17 16 16 16 15 15 15 14 14 14 13 13 13 13 13 13 13 14 15 15 16 16 17 17 16 16 15 14 14 13 12 12 11 11 11 11 10 10 10 10 10 10 10 11 11 12 13 13 14 14 14 14 13 13 13 13 13 14
17 17 18 19 19 19 20 20 20 20 20 20 20 20 20 20 21 21 22 23 22 21 19 18 17 16 16 15 15 14 14 14 13 13 12 12 12 11 10 10 10 10 10 10 11 11 11 11 11 11 11 11 11 10 10 10 9 9 9 9 9 10 10 10 9 9 10 10 11 11 12 13 14 14 15 15 15 14 14 14 14 14 14 15 15
16 17 17 19 19 19 20 20 19 20 20 20 20 19 19 19 20 21 22 22 22 21 19 17 16 15 15 14 14 14 13 12 11 10 9 9 9 8 7 6 6 5 5 6 6 7 7 7 7 7 7 7 8 8 8 8 8 8 8 8 9 9 9 9 9 10 11 12 12 13 14 14 15 15 15 15 15 15 14 15 15 15 15 16 16
16 16 16 18 19 19 19 19 19 19 20 20 20 19 18 18 20 21 22 22 22 21 20 17 15 14 13 13 13 13 12 11 10 9 8 7 6 6 5 4 4 3 2 3 3 4 4 4 5 5 6 6 6 7 7 7 7 8 8 8 9 9 10 10 11 12 12 13 14 15 15 15 15 16 16 16 15 15 16 16 16 16 16 17 18
15 15 16 18 19 19 19 19 19 19 19 20 20 19 18 18 20 21 22 22 22 21 20 18 15 13 12 12 12 12 11 10 9 8 7 7 6 5 4 4 3 3 3 3 3 4 4 4 5 5 6 6 6 7 7 8 9 9 10 10 10 11 11 12 12 13 14 15 15 16 16 16 16 16 16 16 16 16 17 17 17 17 18 18 19
16 15 16 18 19 19 18 17 18 19 19 20 20 21 20 20 20 21 22 22 22 21 20 18 15 14 12 11 11 11 11 10 8 8 7 7 7 6 5 5 4 4 4 4 5 5 6 6 6 6 7 7 7 8 9 10 10 11 11 12 12 13 13 14 15 15 16 17 17 17 16 16 16 16 16 16 16 17 17 18 18 18 19 20 20
17 17 18 19 20 19 18 17 17 19 20 20 21 22 22 22 22 22 22 22 22 21 20 18 15 14 13 12 12 12 12 11 10 9 8 8 8 8 7 7 7 7 7 7 7 7 7 8 8 9 9 9 10 10 11 12 12 13 13 14 15 15 16 17 18 18 18 18 18 17 17 16 16 16 17 17 17 17 18 18 19 19 19 20 20
19 19 19 21 21 20 18 17 17 19 21 21 22 23 23 23 23 23 23 22 21 21 19 17 16 15 14 13 13 13 13 12 12 11 10 10 10 10 10 9 9 9 9 10 10 10 11 11 11 11 12 12 13 13 14 14 15 15 16 16 17 18 19 19 19 19 19 18 18 17 17 16 16 17 17 18 18 18 18 19 19 19 19 19 20
21 20 21 22 22 20 18 17 18 20 21 22 23 24 24 24 24 23 23 22 22 21 19 17 16 16 15 15 15 15 14 14 14 14 13 13 13 12 12 12 12 12 12 13 14 14 15 15 15 15 15 15 15 15 16 17 17 17 18 18 19 20 20 20 20 19 19 18 17 17 17 17 17 17 18 18 19 19 19 19 19 19 20 20 20
22 21 21 22 22 20 19 18 19 20 21 22 23 24 25 26 25 23 22 22 22 21 20 17 16 16 16 16 16 16 16 16 16 16 16 16 16 16 15 15 15 15 16 16 16 16 16 16 17 17 17 17 17 18 18 18 19 19 20 21 22 22 22 21 20 19 19 18 18 18 18 18 18 19 19 19 19 20 20 20 20 20 20 20 21
22 22 22 22 22 21 20 20 19 19 20 21 22 23 25 25 24 22 21 22 23 23 21 19 17 17 17 17 17 17 17 18 18 18 18 19 19 18 18 18 18 18 19 19 19 18 17 17 17 18 18 18 19 20 20 20 21 21 22 22 23 23 22 21 20 20 19 19 19 19 19 19 20 20 21 21 21 21 22 22 22 22 22 21 22
23 22 22 22 23 23 21 20 19 19 19 20 21 22 23 23 21 20 20 21 22 24 24 22 19 18 18 18 18 18 18 19 20 19 19 20 21 21 20 20 21 21 21 21 21 20 19 19 19 19 19 19 19 20 20 21 21 22 23 23 23 23 22 21 21 20 20 20 20 20 20 21 21 22 22 22 22 22 23 23 23 23 23 23 23
24 23 22 22 23 23 22 20 19 19 19 19 20 21 21 21 20 20 19 20 21 23 24 24 22 20 20 20 20 19 20 20 21 20 21 22 22 22 22 22 23 24 23 23 23 22 21 21 21 20 20 19 19 19 20 20 21 22 22 23 23 23 22 22 21 21 21 21 21 21 22 22 22 23 23 24 23 23 23 23 23 23 24 24 25
24 23 23 23 24 23 22 21 21 20 20 19 20 21 21 21 20 20 20 20 21 23 24 24 23 22 22 22 21 21 21 22 21 21 21 22 22 22 22 23 24 25 25 24 24 23 22 22 22 21 20 19 19 19 19 20 20 21 22 23 23 23 22 22 21 21 21 22 22 22 22 23 23 23 24 24 24 24 24 24 24 24 24 25 26
24 24 24 25 25 24 23 22 22 22 21 20 21 22 22 21 21 21 20 21 21 23 24 24 24 24 24 23 22 22 22 23 23 23 22 22 21 21 22 22 23 23 24 24 23 23 22 22 22 21 20 19 19 19 19 19 20 20 21 22 22 23 23 22 22 22 22 22 23 23 23 24 24 24 24 24 24 24 24 25 25 25 25 26 26
24 25 26 26 26 25 24 23 23 22 22 22 22 22 22 21 20 20 20 20 21 22 24 25 25 24 24 24 23 22 22 23 24 24 24 22 21 21 21 21 22 22 22 22 22 21 22 22 22 21 20 20 19 19 19 19 20 20 21 21 22 23 23 23 23 22 22 23 24 24 24 25 25 24 24 24 24 24 25 26 26 27 27 27 27
23 25 27 27 26 26 25 25 24 23 22 23 23 23 23 22 21 20 21 21 21 22 23 25 25 25 25 24 23 23 23 23 24 24 24 22 20 20 21 21 21 21 21 21 21 21 21 22 22 21 21 21 20 20 20 20 20 21 21 22 23 23 24 24 23 23 23 23 24 24 25 26 26 25 25 25 25 25 26 27 28 28 28 28 29
Wind_Direction
239 238 236 235 239 246 245 234 226 225 232 237 234 225 225 232 235 231 227 224 222 220 218 215 214 215 218 222 223 222 221 220 222 227 231 233 235 237 237 236 235 233 233 236 239 240 241 240 242 244 246 246 245 247 250 249 249 247 242 239 241 243 252 258 261 268 272 268 271 278 291 310 324 332 330 320 316 306 298 306 308 304 307 307 301
232 231 228 227 233 238 240 237 230 225 226 230 230 226 224 230 238 240 236 233 230 226 222 218 215 216 218 220 223 227 227 225 224 227 231 235 238 240 241 241 241 240 238 240 242 244 245 245 246 248 249 250 249 250 255 257 256 256 256 254 251 250 257 264 257 250 252 255 264 279 294 297 284 275 276 276 280 279 277 287 295 299 308 312 310
224 223 220 220 223 223 225 226 223 221 223 224 224 224 222 221 228 235 235 236 236 232 228 224 218 216 220 223 224 226 228 229 228 229 232 237 241 243 244 244 246 247 246 245 245 247 248 248 248 249 249 250 250 249 254 259 260 260 260 259 256 253 255 262 260 246 236 239 251 267 276 275 267 266 266 264 263 259 258 268 276 285 297 304 304
224 222 215 212 210 208 211 217 218 221 225 224 222 223 220 214 216 224 227 229 236 237 230 224 220 218 220 224 224 225 226 228 230 232 233 236 240 243 245 247 249 251 252 252 250 250 250 250 249 250 250 251 250 250 253 258 260 261 263 265 264 261 257 260 262 257 250 246 246 253 257 257 258 261 261 261 263 263 262 263 264 268 278 287 291
224 224 218 212 210 207 208 211 212 214 217 217 217 219 219 212 208 216 222 223 232 241 238 227 222 223 226 227 227 227 228 230 233 236 236 237 237 239 241 246 250 253 255 256 256 256 255 254 253 253 254 254 255 255 256 261 264 264 266 267 268 266 262 262 265 268 271 271 260 256 255 244 244 252 253 254 259 264 269 271 267 265 270 277 280
218 223 222 219 217 216 214 211 209 209 210 213 217 217 216 211 205 210 218 220 226 237 241 234 225 227 232 233 233 233 233 235 239 241 242 242 242 240 239 242 248 252 255 258 260 261 262 262 261 260 259 259 260 260 261 263 266 268 269 270 271 269 265 263 265 268 274 275 265 262 262 254 247 248 248 248 251 255 265 272 270 269 276 282 283
210 215 218 220 225 228 227 224 222 221 218 221 225 225 223 223 223 225 227 227 230 233 235 232 226 228 233 233 235 236 235 236 238 241 243 245 246 245 244 244 245 246 250 255 258 261 262 262 262 263 263 263 262 262 262 262 264 267 270 272 272 270 266 263 261 263 264 261 254 252 255 254 250 247 246 247 249 252 258 265 267 269 276 282 285
209 210 209 212 218 228 234 234 233 231 228 229 235 242 241 237 240 243 239 235 235 234 234 234 231 233 236 236 234 235 234 233 235 239 243 245 246 247 249 252 252 249 248 250 253 257 259 260 260 260 261 262 262 262 261 261 262 264 268 270 270 268 267 263 261 261 258 253 248 247 248 249 247 247 248 249 251 254 257 260 264 267 271 276 279
220 216 210 207 208 213 223 232 236 236 237 238 241 247 247 240 236 240 241 240 239 238 239 241 239 237 238 238 236 237 237 235 235 238 242 245 247 249 250 254 256 255 253 252 253 254 255 256 258 259 259 259 259 259 260 260 260 261 263 265 267 267 266 264 264 264 259 255 253 252 253 254 252 252 254 255 256 258 260 261 263 266 270 273 272
224 221 215 210 205 201 201 207 215 222 227 232 234 234 236 238 237 239 242 244 244 244 243 244 243 241 240 240 239 240 242 243 242 241 242 245 247 249 251 252 252 253 254 256 257 257 256 256 256 257 257 257 257 258 258 258 257 258 259 261 264 266 267 268 271 271 269 265 262 261 263 264 265 265 265 265 266 268 268 269 269 270 272 273 272
231 232 232 227 221 214 208 206 207 208 209 214 220 227 231 233 237 242 246 246 246 247 247 247 248 246 246 246 243 241 243 246 248 247 246 245 245 246 248 250 251 251 251 253 256 257 258 259 258 257 258 258 258 258 257 257 257 258 259 259 261 262 263 264 265 265 266 266 265 264 264 266 268 269 269 270 272 274 275 277 278 278 278 277 276
245 251 256 255 251 246 245 243 239 236 235 234 236 243 248 250 252 254 257 257 255 255 254 254 254 252 252 252 251 248 246 246 248 248 247 246 245 244 245 248 250 250 249 250 252 253 255 256 257 257 258 258 258 258 258 258 259 260 260 259 260 260 260 261 262 263 265 267 268 269 269 268 268 268 268 268 269 271 274 278 282 283 282 280 279
238 244 252 257 259 260 261 262 262 260 260 259 258 259 261 264 266 266 267 267 266 266 266 266 265 263 260 258 257 257 254 250 248 247 246 246 246 246 246 248 249 249 249 249 249 250 251 253 255 256 257 258 259 260 260 260 259 260 262 263 262 261 262 263 265 266 267 269 271 273 273 272 270 268 268 267 267 269 274 279 282 280 278 277 277
235 237 241 246 250 254 258 260 262 263 264 264 265 266 266 268 269 270 271 271 271 271 271 271 272 272 270 265 262 260 258 255 251 248 247 247 247 247 248 248 248 248 249 249 248 249 250 252 255 256 256 257 258 260 260 260 259 261 263 264 263 262 263 265 266 267 268 269 270 271 273 272 269 268 268 267 269 273 277 278 278 277 275 275 277
240 240 241 244 246 249 252 255 257 260 262 265 267 268 269 270 271 272 273 273 273 273 273 272 273 273 272 271 269 267 265 263 260 256 253 251 250 249 248 248 248 248 248 247 248 250 252 253 254 255 256 257 259 261 261 261 260 261 263 264 263 264 265 266 267 268 268 267 266 267 269 269 268 269 271 274 277 278 276 275 275 277 277 278 278
241 243 244 247 250 252 254 257 258 259 260 262 265 267 269 270 271 272 273 273 273 273 273 273 272 273 273 272 272 272 271 269 267 264 262 259 258 255 253 251 250 249 248 248 248 250 253 254 255 256 257 257 258 260 262 262 262 263 264 264 264 264 264 264 266 267 267 267 266 267 268 268 270 274 277 279 279 276 275 279 281 281 281 281 280
246 247 248 250 252 254 257 259 261 262 263 263 264 265 266 268 270 271 271 272 272 272 272 271 271 271 272 272 273 273 273 272 271 269 266 264 263 262 261 259 257 254 253 253 252 251 251 253 253 255 257 257 257 258 258 259 261 263 265 265 266 266 265 264 265 266 267 267 267 267 267 268 271 273 275 276 276 275 277 281 282 281 282 281 280
255 254 255 256 257 258 260 261 263 264 265 266 267 267 268 269 270 270 271 271 271 271 271 270 270 270 270 270 270 271 272 273 273 271 269 267 265 264 264 264 262 260 258 257 256 254 254 254 254 254 255 256 256 257 257 256 258 261 262 264 265 266 266 266 267 267 267 267 267 268 269 269 270 271 272 274 276 277 278 280 280 281 281 280 279
258 259 261 262 263 264 264 265 266 266 267 267 268 269 270 271 271 272 272 272 272 272 272 271 271 270 269 269 269 269 270 271 272 272 271 270 268 266 265 265 266 265 262 259 257 257 257 258 258 257 256 255 255 257 259 261 261 261 261 262 264 266 267 268 268 268 267 267 268 269 269 270 270 271 273 275 276 276 276 276 277 278 278 278 280
257 261 264 266 267 268 268 268 269 270 270 271 272 272 272 273 274 274 275 275 275 275 275 275 274 273 272 271 270 270 270 270 270 270 270 270 270 268 266 266 266 267 266 264 261 260 260 259 258 257 257 257 258 259 261 263 262 261 262 262 264 265 267 267 267 267 267 268 269 268 267 267 268 270 272 273 273 274 274 274 274 276 278 280 282
255 259 262 264 266 267 268 269 270 271 272 272 274 275 276 276 277 277 277 278 278 278 278 278 278 278 276 275 273 272 271 271 270 270 270 269 269 269 268 266 265 265 266 266 265 263 262 260 259 258 258 258 258 258 259 259 260 260 261 262 262 263 264 265 266 267 268 269 269 267 265 265 266 269 272 272 271 271 273 274 274 276 279 280 279
253 257 259 261 262 263 265 267 268 269 271 272 274 275 277 278 279 279 279 279 280 280 279 279 279 279 279 279 278 276 274 273 273 272 272 271 270 269 269 268 267 265 264 265 265 265 264 263 263 262 260 259 258 257 257 258 258 260 261 261 261 261 261 263 265 267 269 269 270 269 268 268 269 270 271 271 270 269 270 271 272 272 273 274 275
251 256 258 259 259 261 262 263 266 268 270 273 275 277 278 279 280 281 281 281 281 281 281 281 280 280 280 280 280 279 277 275 274 274 273 273 272 271 270 269 268 267 266 264 264 265 265 266 265 265 264 262 260 259 258 258 258 259 260 260 261 261 262 263 266 268 270 271 271 272 272 272 271 270 270 270 271 270 270 271 271 269 270 272 275
251 254 257 258 259 259 260 262 265 268 271 274 277 279 281 283 283 284 285 285 284 284 283 283 283 282 282 281 281 281 280 278 276 275 273 273 273 272 271 270 269 268 267 266 264 264 264 265 265 266 266 265 264 262 260 259 259 259 259 259 260 261 263 264 266 268 270 271 271 271 272 272 272 272 272 272 272 272 273 273 273 273 273 273 275
251 253 255 256 257 257 258 261 265 269 271 274 277 280 283 285 287 288 288 288 288 287 286 284 283 283 283 283 282 281 281 280 278 277 275 273 272 272 272 271 270 269 268 267 265 264 263 263 264 264 265 266 266 264 262 261 260 260 261 261 262 263 264 265 267 268 269 270 271 271 272 273 273 274 274 274 275 275 275 276 276 275 275 275 275
249 251 252 254 256 257 259 262 265 269 272 274 277 280 283 286 288 289 289 289 288 288 287 285 284 283 282 283 284 283 283 282 280 278 276 274 272 271 271 271 271 270 269 267 266 265 263 262 262 262 263 264 264 264 264 263 263 263 263 263 264 264 265 266 267 269 270 271 273 273 275 276 277 277 278 278 278 278 278 277 276 275 275 275 275
251 251 252 253 256 258 260 263 266 269 272 274 278 282 285 288 290 290 290 289 288 287 286 285 284 283 282 282 283 284 285 285 283 280 276 273 271 270 269 270 270 269 268 267 266 265 263 262 261 260 261 261 262 262 263 263 262 261 261 262 263 264 266 267 268 270 271 273 274 275 277 278 278 279 279 279 279 279 278 278 276 275 275 274 274
258 256 255 255 257 259 262 265 267 270 273 275 279 284 288 290 291 291 291 291 291 290 289 287 286 284 283 282 282 283 285 286 285 282 277 273 270 268 267 267 267 267 266 265 264 263 262 262 261 260 260 260 261 262 262 262 261 260 260 261 262 263 266 268 269 271 273 274 275 276 276 277 277 277 277 277 277 277 277 276 276 275 274 273 273
266 264 261 259 260 261 264 267 270 272 276 279 283 287 289 291 291 291 291 291 292 292 292 291 290 288 285 284 283 284 284 285 285 282 277 272 269 267 266 266 265 265 264 263 262 261 260 260 261 260 260 260 261 261 262 263 263 263 262 263 264 265 267 269 270 271 272 273 274 274 274 274 274 274 274 274 274 275 275 276 275 275 275 274 274
268 267 265 262 262 263 266 269 272 275 277 281 284 286 288 289 290 290 291 291 292 294 295 295 295 293 290 288 287 286 286 286 285 281 276 272 269 267 266 265 264 264 263 262 261 260 260 259 259 259 260 260 260 260 261 262 263 264 265 266 267 269 269 269 270 270 272 272 273 274 275 275 275 275 274 274 274 274 275 275 276 277 277 277 277
266 267 266 265 265 266 268 271 273 275 277 280 283 286 288 290 290 290 291 292 294 297 299 300 301 299 297 294 292 290 290 289 286 281 276 272 270 268 267 267 265 264 263 262 260 260 259 259 258 258 258 259 259 259 260 261 262 263 265 266 267 267 267 268 269 271 272 273 274 274 274 275 275 275 276 276 277 278 278 279 281 282 281 281 282
265 266 265 264 264 265 267 270 272 275 278 281 285 288 290 292 293 292 292 293 295 297 300 302 303 303 302 300 298 295 294 294 291 286 280 276 274 274 273 272 269 266 263 261 260 259 258 258 259 259 259 259 258 258 259 260 261 262 262 262 262 263 265 267 268 269 268 268 268 268 270 272 275 278 281 283 284 284 285 285 285 285 285 287 289
264 265 263 263 264 264 265 269 273 278 281 283 287 290 292 294 295 295 295 295 295 296 298 301 303 304 304 304 304 303 303 302 301 297 294 290 287 286 284 281 277 272 267 263 260 259 258 258 258 258 258 258 258 258 258 258 258 259 258 258 259 261 262 262 262 261 260 260 262 264 268 274 279 283 285 287 287 286 286 285 286 288 290 293 294
263 265 264 265 266 266 267 270 275 279 282 284 287 290 292 295 297 298 299 298 297 296 299 301 303 305 307 308 310 311 312 311 310 309 307 304 299 295 291 287 283 279 273 268 263 260 258 257 257 257 258 258 258 257 257 256 255 255 255 255 256 256 255 254 252 251 250 253 258 264 271 277 281 285 286 286 285 284 284 285 287 289 291 292 293
261 264 263 263 265 265 266 269 273 276 279 282 285 289 291 294 297 300 301 300 299 298 300 302 305 307 309 311 313 315 315 313 312 311 309 306 302 298 294 290 286 282 278 273 268 264 261 258 257 256 256 256 255 254 252 251 250 249 249 248 247 246 244 243 243 244 249 256 264 271 278 282 285 286 286 284 283 283 284 285 287 288 290 291 291
257 259 259 259 261 263 263 267 270 274 278 280 283 286 290 294 297 299 301 301 301 300 300 302 304 306 309 310 312 315 315 314 311 308 305 303 299 297 295 292 288 284 280 274 269 264 260 257 254 251 250 249 248 246 243 240 237 236 235 235 236 238 240 243 248 254 261 268 274 279 283 285 286 286 285 284 283 283 284 285 285 286 287 287 288
251 254 254 255 258 260 261 264 269 272 276 279 280 283 288 292 296 298 300 301 302 301 300 300 301 303 306 308 311 313 314 313 310 306 303 300 297 296 297 297 294 289 283 275 267 258 251 247 242 239 238 238 237 236 235 233 232 233 235 238 242 247 252 259 265 270 274 277 281 284 285 286 287 286 284 282 282 281 281 282 283 283 284 285 287
244 247 250 253 256 258 260 262 266 271 275 277 278 281 286 291 295 297 298 300 302 302 302 299 297 298 300 303 306 308 308 307 307 306 305 304 304 303 306 310 306 301 292 280 267 255 244 236 232 231 233 235 238 242 246 249 252 255 257 260 264 267 271 274 277 279 282 285 287 288 288 287 286 284 282 281 281 281 281 281 282 283 284 285 287
235 240 246 250 252 255 258 261 265 270 273 275 276 278 282 288 293 296 297 298 301 303 302 299 294 291 293 296 299 300 299 298 299 300 300 299 298 296 297 297 296 294 287 280 272 265 259 253 247 247 249 251 256 261 265 268 270 272 273 274 276 277 279 282 284 285 287 287 287 287 286 284 281 279 279 278 278 279 280 281 282 283 284 285 286
229 236 242 246 249 251 254 259 264 268 270 272 272 274 277 283 289 292 294 296 299 301 301 298 292 286 284 285 287 289 288 286 286 287 288 289 287 284 281 278 276 274 272 272 272 273 274 273 271 270 270 271 273 274 274 275 277 278 279 280 282 283 284 286 286 286 286 286 285 284 281 279 276 275 274 274 274 275 277 279 281 283 285 286 287
229 238 243 247 250 251 252 256 262 266 267 269 270 271 273 278 283 287 290 293 295 296 297 294 288 282 280 278 278 279 279 277 274 274 275 278 279 279 279 277 276 275 274 274 274 273 274 276 277 278 279 280 280 280 280 281 281 281 282 284 285 286 287 287 287 286 286 285 283 281 278 276 275 274 273 274 274 274 276 278 280 282 284 286 288
233 240 245 249 252 254 255 257 261 264 265 267 270 272 273 275 278 282 286 289 290 292 292 288 282 277 274 273 273 273 274 274 273 271 270 271 273 275 277 278 279 280 282 283 283 282 280 279 279 279 280 281 281 282 282 281 280 281 284 286 288 289 289 289 288 288 287 284 282 280 278 276 275 274 273 274 274 275 276 278 280 282 284 286 288
235 241 246 252 255 258 260 262 264 266 268 270 272 273 274 274 276 279 283 285 286 287 285 281 276 272 269 268 267 269 271 273 274 274 273 273 273 273 273 273 274 277 282 286 286 285 283 282 280 280 280 279 279 279 279 279 281 283 286 289 290 290 291 292 292 291 289 286 283 281 278 277 276 275 274 274 276 277 279 281 283 285 286 287 288
237 243 249 255 260 263 264 264 266 269 272 274 274 272 271 272 274 277 280 282 283 283 281 276 269 266 264 262 262 263 265 268 271 273 275 276 277 277 276 274 274 278 284 288 288 286 284 283 282 280 280 279 278 278 278 279 282 284 287 288 289 290 292 293 294 293 290 287 285 282 280 278 278 277 277 278 279 281 282 284 285 286 286 288 290
242 248 254 259 263 264 263 264 267 272 276 278 276 272 268 268 270 274 277 280 282 282 282 277 268 261 259 259 259 259 261 263 264 266 269 272 274 276 276 276 277 280 285 288 289 288 286 285 285 283 282 281 280 280 281 282 284 286 287 288 289 291 293 295 295 293 290 288 286 284 281 280 279 279 280 281 282 284 285 285 285 286 287 289 292
244 249 255 262 264 263 262 263 268 274 279 281 278 270 263 262 265 269 273 277 280 281 281 279 272 262 257 256 257 257 257 259 260 261 263 265 268 270 272 274 275 278 281 284 286 286 286 286 286 285 283 281 280 280 282 284 285 287 287 288 290 292 293 294 294 292 290 288 286 284 282 281 280 280 281 282 283 284 284 285 285 286 288 290 292
243 249 256 261 262 261 261 264 269 273 278 281 277 267 260 259 262 266 270 274 277 277 278 278 274 266 259 257 257 257 257 258 259 260 260 262 264 266 268 269 271 273 276 279 281 282 283 284 284 283 282 280 279 279 281 283 284 285 286 288 289 290 291 291 291 290 288 286 285 284 283 282 281 282 282 283 283 283 283 284 285 287 289 291 292
243 249 255 258 259 260 261 265 270 274 278 280 276 268 261 259 262 266 270 274 276 276 276 274 271 267 262 259 258 259 259 261 262 262 261 260 262 264 266 268 270 273 275 277 278 280 280 280 280 281 281 280 280 280 281 282 283 285 286 287 288 288 288 287 286 285 284 283 283 283 283 283 283 283 283 283 283 282 283 284 285 287 290 291 292
243 247 252 255 257 257 259 263 269 274 277 277 275 270 265 262 263 267 271 275 277 278 277 273 269 266 264 262 260 259 259 261 262 263 262 263 265 267 269 271 273 275 277 278 279 279 279 279 279 279 279 280 281 282 283 284 284 285 286 286 287 286 286 284 283 282 282 281 282 282 283 284 284 283 282 282 281 282 283 284 285 287 289 291 291
242 246 251 253 254 255 256 260 266 271 276 277 275 271 268 265 265 268 272 276 279 280 279 275 270 266 263 262 261 260 260 261 262 263 265 267 270 271 273 275 276 277 278 278 279 279 279 279 279 279 279 280 280 280 281 282 283 283 284 284 284 284 283 283 282 281 281 280 281 282 283 284 285 284 282 281 281 282 283 284 286 288 289 290 291
244 248 251 253 253 253 254 258 264 270 274 276 275 274 272 271 271 272 274 276 277 277 277 276 272 267 264 263 262 262 262 263 264 265 268 270 272 273 274 276 277 277 277 278 277 277 277 277 278 279 280 280 279 279 280 280 281 282 283 283 282 282 281 280 280 280 279 279 279 280 282 283 284 284 282 281 281 281 283 284 286 288 290 291 290
Height
5886 5886 5887 5887 5888 5889 5889 5889 5890 5891 5892 5893 5893 5893 5894 5894 5895 5895 5896 5896 5896 5896 5896 5896 5897 5898 5899 5900 5902 5903 5903 5904 5905 5906 5907 5907 5907 5908 5908 5909 5909 5909 5910 5910 5911 5911 5911 5911 5911 5911 5910 5911 5911 5911 5911 5912 5913 5913 5913 5913 5913 5912 5912 5912 5912 5911 5911 5910 5910 5911 5912 5913 5912 5912 5911 5911 5911 5912 5912 5912 5912 5912 5911 5910 5910
5885 5885 5885 5886 5887 5888 5888 5888 5889 5890 5890 5891 5891 5892 5892 5893 5894 5896 5897 5897 5897 5896 5896 5896 5896 5897 5898 5899 5900 5901 5902 5903 5903 5904 5905 5905 5906 5907 5907 5907 5908 5908 5909 5909 5909 5910 5910 5910 5910 5910 5909 5909 5909 5910 5910 5910 5911 5912 5912 5912 5912 5911 5911 5910 5910 5910 5909 5908 5908 5909 5910 5911 5911 5910 5909 5909 5910 5910 5910 5911 5911 5911 5910 5909 5909
5884 5884 5884 5885 5887 5887 5887 5887 5887 5887 5888 5889 5890 5890 5891 5892 5894 5895 5896 5896 5896 5896 5896 5895 5895 5895 5896 5898 5899 5900 5900 5901 5901 5901 5902 5903 5904 5905 5906 5906 5907 5907 5907 5907 5908 5908 5908 5909 5909 5908 5908 5908 5908 5908 5908 5909 5910 5910 5910 5911 5911 5910 5910 5909 5909 5908 5908 5907 5907 5908 5909 5909 5909 5909 5908 5908 5909 5908 5908 5908 5908 5908 5908 5908 5907
5883 5883 5884 5885 5885 5886 5886 5886 5886 5887 5888 5888 5889 5889 5890 5890 5892 5893 5893 5894 5895 5896 5895 5894 5894 5894 5895 5896 5897 5897 5898 5898 5899 5899 5900 5900 5901 5903 5904 5904 5905 5905 5905 5906 5906 5906 5907 5907 5907 5907 5907 5907 5907 5907 5907 5907 5908 5908 5908 5909 5909 5909 5909 5908 5907 5907 5907 5907 5907 5907 5908 5908 5908 5908 5908 5907 5907 5907 5906 5906 5906 5906 5905 5905 5905
5882 5883 5883 5884 5884 5885 5885 5885 5886 5886 5886 5887 5888 5888 5888 5889 5890 5890 5890 5891 5894 5895 5895 5894 5893 5893 5893 5894 5894 5895 5895 5896 5897 5897 5898 5898 5899 5900 5901 5902 5903 5903 5903 5903 5904 5904 5904 5905 5905 5905 5905 5905 5905 5905 5905 5905 5906 5906 5907 5907 5908 5908 5907 5907 5906 5906 5906 5906 5906 5906 5906 5907 5907 5906 5906 5906 5905 5905 5904 5904 5904 5903 5903 5903 5902
5882 5882 5883 5883 5883 5884 5884 5884 5884 5885 5886 5887 5887 5888 5888 5888 5888 5888 5887 5888 5891 5894 5895 5893 5891 5891 5892 5893 5892 5892 5893 5894 5895 5895 5896 5897 5897 5898 5899 5899 5900 5901 5901 5901 5902 5902 5902 5902 5902 5902 5903 5903 5904 5904 5904 5904 5904 5904 5904 5905 5905 5906 5906 5905 5905 5904 5904 5904 5905 5904 5904 5905 5905 5904 5903 5903 5903 5903 5903 5902 5902 5901 5901 5900 5900
5881 5881 5882 5882 5883 5883 5884 5884 5884 5884 5885 5886 5887 5887 5887 5886 5885 5884 5884 5886 5889 5891 5893 5892 5890 5889 5890 5891 5890 5890 5891 5892 5892 5893 5894 5895 5896 5896 5897 5897 5897 5898 5898 5899 5899 5899 5899 5899 5900 5900 5900 5901 5901 5902 5903 5903 5903 5902 5902 5902 5902 5903 5903 5903 5903 5902 5902 5902 5902 5901 5901 5901 5902 5901 5901 5900 5900 5900 5900 5900 5900 5899 5898 5898 5898
5882 5882 5882 5882 5882 5882 5882 5883 5883 5883 5884 5884 5884 5884 5884 5883 5883 5883 5884 5886 5888 5889 5890 5888 5887 5887 5887 5888 5888 5888 5889 5889 5890 5891 5892 5893 5894 5894 5895 5895 5895 5896 5896 5896 5896 5897 5897 5897 5897 5897 5897 5898 5898 5899 5900 5901 5901 5901 5900 5899 5899 5899 5900 5900 5900 5900 5900 5899 5899 5899 5899 5899 5899 5898 5898 5897 5897 5897 5897 5897 5897 5896 5896 5896 5895
5882 5882 5882 5882 5882 5882 5882 5882 5882 5882 5882 5882 5881 5882 5882 5883 5884 5884 5885 5885 5886 5886 5886 5885 5884 5884 5884 5885 5886 5886 5886 5886 5887 5888 5889 5890 5891 5892 5892 5893 5893 5893 5893 5894 5894 5894 5894 5894 5894 5894 5894 5895 5895 5896 5897 5898 5898 5898 5898 5897 5897 5897 5897 5897 5897 5897 5897 5897 5897 5897 5896 5896 5896 5896 5895 5894 5894 5894 5894 5894 5894 5893 5893 5893 5893
5881 5882 5882 5882 5882 5882 5882 5882 5882 5882 5882 5882 5882 5883 5883 5884 5884 5884 5884 5884 5883 5883 5883 5883 5882 5882 5883 5883 5884 5884 5884 5884 5885 5886 5887 5888 5888 5889 5890 5890 5890 5891 5891 5891 5891 5891 5891 5891 5891 5891 5891 5892 5892 5893 5894 5894 5895 5895 5895 5895 5895 5895 5894 5894 5894 5894 5894 5894 5894 5894 5894 5894 5893 5893 5892 5892 5892 5891 5891 5891 5891 5891 5890 5890 5890
5881 5881 5881 5882 5882 5882 5882 5883 5883 5883 5883 5883 5883 5883 5883 5883 5883 5883 5882 5882 5882 5882 5882 5882 5881 5881 5881 5881 5882 5882 5882 5883 5883 5884 5885 5885 5885 5886 5886 5886 5887 5888 5888 5888 5888 5889 5888 5888 5888 5888 5889 5889 5889 5890 5890 5891 5891 5892 5892 5892 5892 5893 5892 5892 5891 5891 5890 5890 5891 5891 5891 5891 5891 5890 5890 5889 5889 5888 5888 5888 5888 5888 5887 5887 5886
5880 5880 5880 5880 5881 5881 5881 5882 5882 5882 5882 5882 5882 5882 5882 5882 5882 5882 5881 5881 5881 5881 5881 5881 5881 5880 5880 5879 5879 5880 5880 5881 5881 5882 5882 5882 5882 5882 5882 5883 5884 5884 5885 5885 5885 5885 5885 5885 5885 5885 5886 5886 5886 5886 5887 5887 5888 5888 5889 5889 5889 5890 5890 5890 5889 5888 5888 5888 5887 5887 5888 5888 5888 5887 5887 5886 5886 5885 5885 5885 5884 5884 5884 5883 5882
5878 5878 5878 5878 5879 5879 5879 5880 5880 5880 5881 5881 5881 5881 5881 5881 5881 5881 5880 5880 5880 5880 5880 5880 5880 5879 5879 5878 5878 5878 5878 5878 5879 5879 5879 5879 5879 5879 5879 5879 5880 5881 5881 5881 5881 5881 5881 5881 5882 5882 5883 5883 5883 5883 5884 5884 5885 5885 5885 5886 5886 5886 5886 5886 5886 5886 5886 5885 5884 5884 5884 5885 5885 5884 5883 5883 5882 5882 5882 5882 5881 5881 5880 5880 5879
5876 5876 5876 5876 5876 5877 5877 5877 5878 5878 5878 5879 5879 5880 5880 5880 5880 5880 5880 5880 5879 5879 5879 5879 5879 5879 5878 5877 5877 5876 5876 5876 5876 5876 5876 5876 5876 5876 5876 5876 5877 5877 5877 5877 5877 5877 5877 5878 5879 5880 5880 5880 5880 5880 5880 5881 5881 5882 5882 5882 5883 5883 5883 5883 5883 5883 5883 5882 5882 5882 5881 5881 5880 5879 5878 5879 5880 5880 5880 5879 5877 5877 5876 5876 5876
5874 5874 5874 5874 5874 5874 5874 5875 5875 5876 5876 5876 5877 5877 5877 5877 5878 5878 5878 5878 5878 5878 5878 5878 5878 5877 5877 5876 5875 5874 5874 5874 5874 5873 5873 5873 5873 5873 5873 5873 5873 5873 5873 5873 5873 5873 5874 5875 5876 5876 5877 5877 5877 5877 5877 5877 5877 5878 5878 5878 5879 5879 5879 5879 5879 5879 5879 5879 5879 5879 5878 5877 5876 5874 5874 5876 5878 5878 5875 5874 5874 5873 5872 5872 5872
5872 5872 5872 5872 5872 5872 5872 5872 5872 5872 5873 5873 5873 5874 5874 5874 5874 5875 5875 5875 5876 5876 5876 5876 5876 5875 5875 5874 5873 5873 5872 5872 5871 5871 5871 5871 5870 5870 5870 5869 5869 5869 5869 5868 5869 5871 5872 5873 5872 5873 5873 5873 5874 5874 5874 5874 5873 5873 5874 5874 5875 5875 5875 5875 5875 5875 5875 5876 5876 5875 5874 5873 5872 5871 5871 5873 5874 5872 5870 5870 5870 5869 5868 5868 5868
5871 5871 5870 5870 5870 5870 5870 5870 5870 5870 5870 5870 5870 5870 5871 5871 5871 5871 5872 5872 5873 5873 5873 5874 5873 5873 5872 5872 5871 5870 5869 5869 5869 5869 5868 5868 5868 5867 5867 5866 5865 5865 5865 5865 5867 5868 5868 5868 5868 5869 5869 5869 5870 5870 5870 5870 5870 5870 5870 5870 5870 5871 5871 5871 5871 5871 5872 5872 5872 5871 5870 5869 5869 5868 5868 5868 5868 5867 5867 5866 5865 5864 5864 5863 5863
5869 5869 5869 5869 5868 5868 5868 5868 5868 5867 5868 5868 5868 5868 5868 5868 5868 5868 5869 5869 5869 5870 5870 5870 5870 5870 5869 5869 5868 5867 5867 5866 5866 5865 5865 5865 5865 5865 5864 5863 5862 5862 5862 5863 5864 5863 5863 5863 5864 5865 5866 5865 5866 5865 5865 5866 5866 5866 5866 5866 5866 5866 5866 5866 5866 5867 5868 5867 5867 5867 5866 5865 5864 5864 5863 5863 5863 5863 5863 5862 5860 5859 5859 5858 5857
5867 5867 5867 5867 5867 5867 5867 5866 5866 5866 5865 5865 5865 5865 5865 5865 5865 5865 5865 5866 5866 5866 5866 5866 5866 5866 5865 5865 5865 5864 5863 5863 5862 5862 5861 5861 5861 5861 5861 5860 5859 5859 5859 5859 5860 5859 5858 5859 5860 5861 5861 5862 5861 5861 5861 5861 5861 5862 5862 5862 5862 5862 5861 5861 5862 5862 5862 5862 5862 5862 5862 5861 5859 5859 5858 5859 5859 5859 5858 5858 5856 5855 5854 5853 5853
5865 5864 5864 5864 5865 5865 5864 5864 5864 5864 5863 5863 5862 5862 5862 5862 5862 5862 5862 5862 5862 5862 5862 5862 5861 5861 5861 5861 5860 5860 5859 5859 5858 5858 5857 5857 5857 5857 5857 5857 5856 5855 5855 5855 5856 5855 5855 5855 5856 5856 5857 5857 5857 5857 5857 5857 5857 5858 5858 5858 5858 5858 5857 5856 5856 5857 5857 5857 5858 5858 5857 5856 5855 5854 5854 5854 5855 5855 5854 5853 5852 5851 5850 5850 5850
5862 5862 5862 5862 5862 5862 5862 5862 5862 5861 5861 5861 5860 5860 5859 5859 5859 5859 5859 5859 5859 5858 5858 5858 5857 5857 5856 5856 5856 5855 5855 5854 5853 5853 5853 5853 5853 5853 5853 5853 5852 5852 5851 5851 5851 5851 5851 5851 5851 5852 5853 5853 5853 5854 5854 5854 5854 5854 5854 5854 5853 5853 5852 5851 5851 5852 5852 5852 5853 5852 5852 5852 5851 5851 5850 5850 5851 5851 5849 5847 5848 5848 5847 5846 5845
5860 5860 5860 5859 5859 5859 5859 5859 5859 5859 5859 5858 5858 5858 5857 5857 5856 5856 5856 5855 5855 5855 5854 5854 5853 5853 5852 5852 5852 5851 5850 5850 5849 5848 5848 5848 5848 5848 5848 5848 5848 5848 5848 5847 5847 5847 5847 5847 5847 5847 5848 5849 5849 5849 5850 5850 5850 5850 5849 5849 5849 5849 5848 5847 5847 5847 5848 5848 5848 5847 5847 5847 5847 5847 5846 5845 5845 5846 5845 5843 5844 5845 5843 5840 5840
5858 5858 5858 5857 5857 5857 5857 5857 5857 5857 5857 5856 5856 5856 5855 5854 5854 5853 5853 5852 5852 5851 5851 5850 5850 5849 5849 5848 5847 5847 5846 5846 5845 5844 5843 5843 5843 5843 5843 5843 5843 5844 5843 5843 5843 5843 5842 5842 5843 5843 5843 5844 5844 5844 5845 5845 5845 5845 5845 5845 5845 5845 5844 5844 5843 5843 5844 5844 5844 5843 5842 5842 5842 5842 5842 5841 5840 5840 5840 5839 5839 5840 5839 5836 5836
5856 5856 5855 5855 5855 5854 5854 5854 5854 5854 5854 5854 5854 5854 5853 5852 5852 5851 5850 5849 5849 5848 5847 5847 5846 5846 5845 5844 5843 5842 5842 5841 5841 5840 5840 5839 5838 5838 5837 5838 5838 5838 5838 5838 5838 5838 5838 5838 5838 5838 5838 5839 5839 5839 5840 5840 5840 5840 5841 5841 5841 5841 5840 5840 5839 5839 5839 5839 5839 5839 5838 5838 5837 5837 5837 5837 5836 5835 5835 5835 5835 5834 5834 5833 5832
5853 5853 5853 5853 5853 5852 5852 5852 5852 5852 5852 5852 5852 5852 5851 5850 5850 5849 5847 5846 5845 5845 5844 5843 5843 5842 5841 5841 5840 5839 5838 5837 5836 5836 5835 5835 5834 5833 5833 5833 5833 5833 5833 5833 5833 5833 5833 5833 5833 5834 5834 5834 5834 5834 5835 5835 5835 5835 5836 5836 5836 5836 5836 5836 5835 5835 5835 5835 5835 5834 5834 5833 5833 5832 5832 5831 5831 5831 5831 5830 5830 5829 5828 5827 5827
5851 5851 5850 5850 5850 5850 5849 5849 5849 5849 5849 5849 5849 5849 5849 5848 5847 5846 5845 5844 5843 5842 5841 5840 5839 5839 5838 5837 5836 5835 5834 5833 5832 5831 5830 5830 5829 5829 5828 5828 5828 5828 5828 5828 5828 5828 5829 5829 5829 5829 5829 5830 5830 5830 5830 5830 5830 5831 5831 5831 5831 5832 5831 5831 5831 5831 5830 5830 5830 5830 5829 5828 5828 5827 5826 5826 5825 5825 5825 5825 5824 5823 5822 5821 5821
5849 5848 5848 5848 5848 5847 5847 5846 5846 5846 5846 5846 5846 5846 5845 5845 5844 5843 5842 5841 5840 5838 5838 5837 5836 5835 5834 5833 5832 5831 5830 5829 5828 5826 5826 5825 5824 5824 5824 5823 5823 5823 5823 5823 5823 5823 5823 5824 5824 5824 5825 5825 5825 5825 5826 5826 5826 5826 5827 5827 5827 5827 5827 5827 5827 5826 5826 5826 5825 5825 5824 5824 5823 5822 5821 5820 5820 5819 5819 5819 5818 5818 5817 5816 5815
5846 5845 5845 5845 5845 5844 5844 5844 5843 5843 5843 5843 5843 5842 5842 5841 5840 5839 5838 5837 5836 5835 5834 5833 5832 5831 5830 5829 5828 5827 5826 5824 5823 5822 5821 5820 5819 5819 5819 5818 5818 5818 5818 5818 5818 5818 5818 5819 5819 5819 5820 5820 5820 5821 5821 5822 5822 5822 5823 5823 5823 5823 5823 5822 5822 5822 5821 5821 5821 5820 5820 5820 5819 5818 5817 5816 5815 5814 5814 5814 5813 5813 5812 5811 5810
5843 5843 5842 5842 5842 5841 5841 5841 5840 5840 5840 5840 5839 5839 5839 5838 5837 5836 5835 5834 5832 5831 5830 5829 5828 5827 5826 5825 5824 5823 5821 5820 5819 5817 5816 5815 5815 5814 5814 5814 5813 5813 5813 5813 5813 5813 5813 5814 5814 5815 5815 5816 5816 5816 5817 5817 5818 5818 5818 5818 5819 5819 5819 5818 5818 5818 5818 5817 5817 5817 5816 5815 5815 5814 5813 5812 5811 5810 5810 5809 5809 5808 5808 5807 5807
5840 5839 5839 5840 5839 5839 5839 5838 5838 5838 5837 5837 5836 5836 5836 5835 5834 5833 5832 5830 5829 5828 5826 5825 5824 5823 5822 5820 5819 5818 5817 5816 5814 5813 5812 5811 5811 5810 5810 5810 5809 5809 5809 5809 5809 5809 5809 5810 5810 5811 5811 5811 5812 5812 5813 5813 5813 5814 5814 5814 5814 5814 5814 5814 5814 5814 5814 5814 5813 5813 5812 5811 5811 5810 5809 5809 5808 5807 5807 5806 5806 5805 5805 5804 5803
5837 5836 5836 5837 5836 5836 5836 5836 5836 5835 5835 5834 5834 5833 5833 5832 5831 5830 5829 5827 5826 5825 5823 5822 5820 5819 5817 5817 5816 5814 5813 5812 5811 5809 5808 5807 5807 5806 5806 5806 5805 5805 5805 5805 5805 5805 5805 5805 5806 5806 5807 5807 5808 5808 5809 5809 5810 5810 5810 5811 5811 5811 5811 5811 5811 5811 5811 5810 5810 5809 5809 5808 5808 5807 5806 5806 5805 5805 5804 5804 5803 5803 5802 5801 5801
5833 5833 5833 5834 5834 5834 5834 5834 5834 5833 5832 5832 5831 5830 5830 5829 5828 5827 5826 5825 5824 5822 5821 5819 5817 5815 5814 5813 5812 5811 5809 5808 5807 5806 5805 5804 5803 5803 5802 5802 5801 5801 5801 5801 5801 5801 5801 5802 5802 5803 5803 5804 5804 5805 5805 5805 5806 5806 5807 5807 5807 5808 5808 5808 5808 5808 5808 5807 5807 5807 5806 5806 5805 5805 5804 5804 5803 5803 5802 5802 5801 5800 5800 5799 5799
5829 5829 5830 5831 5831 5831 5831 5831 5831 5830 5829 5828 5828 5827 5827 5826 5825 5824 5823 5822 5821 5820 5818 5816 5815 5813 5811 5810 5809 5807 5806 5805 5804 5803 5802 5801 5800 5800 5799 5799 5798 5797 5797 5797 5797 5798 5798 5799 5799 5800 5800 5801 5801 5801 5802 5802 5803 5803 5804 5804 5804 5805 5805 5805 5805 5805 5805 5805 5805 5805 5804 5804 5804 5803 5802 5802 5801 5801 5800 5800 5799 5798 5798 5797 5797
5826 5826 5826 5827 5827 5827 5827 5827 5827 5827 5826 5825 5825 5824 5824 5823 5822 5822 5821 5820 5818 5817 5815 5813 5812 5811 5809 5808 5806 5805 5804 5803 5802 5801 5800 5799 5798 5797 5797 5796 5796 5795 5794 5794 5795 5795 5795 5796 5797 5797 5798 5798 5798 5799 5799 5799 5800 5800 5801 5801 5802 5802 5802 5803 5803 5803 5803 5803 5803 5803 5803 5802 5802 5801 5801 5800 5800 5799 5799 5798 5798 5797 5796 5796 5795
5823 5823 5823 5823 5823 5823 5824 5824 5824 5823 5823 5822 5822 5821 5821 5820 5820 5819 5818 5817 5816 5814 5812 5811 5809 5808 5807 5806 5805 5803 5802 5801 5800 5799 5798 5797 5796 5795 5795 5794 5794 5793 5793 5793 5793 5793 5793 5794 5795 5795 5796 5796 5797 5797 5797 5798 5798 5798 5799 5799 5800 5800 5800 5801 5801 5801 5801 5802 5801 5801 5801 5800 5800 5800 5799 5799 5798 5798 5797 5797 5796 5795 5795 5794 5794
5819 5819 5819 5819 5820 5820 5820 5821 5821 5820 5820 5819 5819 5819 5818 5818 5817 5816 5815 5814 5813 5811 5810 5808 5807 5806 5805 5804 5803 5802 5801 5800 5799 5798 5797 5796 5795 5794 5794 5793 5793 5792 5792 5792 5792 5792 5792 5793 5793 5794 5794 5795 5795 5796 5796 5796 5797 5797 5797 5798 5798 5799 5799 5799 5799 5800 5800 5799 5799 5799 5799 5798 5798 5798 5797 5797 5796 5796 5795 5795 5794 5794 5793 5792 5792
5816 5816 5816 5816 5816 5817 5817 5817 5818 5817 5817 5817 5817 5816 5816 5815 5814 5813 5813 5812 5811 5809 5808 5806 5805 5804 5803 5803 5802 5801 5800 5799 5798 5797 5796 5795 5795 5794 5793 5793 5792 5792 5792 5791 5791 5792 5792 5792 5793 5793 5794 5794 5795 5795 5796 5796 5796 5796 5797 5797 5797 5797 5797 5798 5798 5798 5798 5797 5797 5797 5796 5796 5796 5795 5795 5794 5794 5793 5793 5793 5792 5792 5791 5790 5790
5813 5812 5812 5812 5813 5813 5813 5814 5814 5814 5814 5814 5814 5813 5813 5812 5811 5810 5810 5809 5808 5807 5805 5804 5803 5802 5801 5801 5801 5800 5799 5798 5797 5797 5796 5795 5794 5794 5793 5793 5792 5792 5792 5792 5792 5792 5792 5793 5793 5793 5794 5794 5795 5795 5795 5795 5795 5795 5796 5796 5796 5796 5796 5796 5796 5796 5796 5795 5795 5794 5794 5793 5793 5792 5792 5792 5791 5791 5790 5790 5790 5789 5789 5788 5787
5809 5809 5809 5809 5809 5809 5810 5810 5810 5810 5811 5811 5810 5810 5810 5810 5809 5808 5807 5806 5805 5804 5802 5801 5800 5800 5800 5799 5799 5799 5798 5797 5796 5796 5795 5795 5794 5794 5793 5793 5793 5792 5792 5792 5792 5792 5792 5793 5793 5793 5793 5794 5794 5794 5794 5794 5794 5794 5794 5794 5794 5794 5794 5794 5794 5794 5793 5793 5793 5792 5792 5791 5790 5790 5790 5789 5789 5788 5788 5788 5787 5787 5786 5785 5785
5806 5805 5805 5805 5805 5805 5805 5806 5806 5806 5807 5807 5807 5807 5807 5807 5806 5805 5804 5803 5802 5801 5800 5799 5798 5798 5797 5797 5797 5797 5797 5796 5795 5795 5795 5794 5794 5793 5793 5792 5792 5792 5792 5792 5792 5792 5792 5792 5793 5793 5793 5793 5793 5793 5793 5793 5793 5793 5793 5793 5793 5792 5792 5792 5792 5791 5791 5791 5790 5790 5789 5789 5788 5788 5788 5787 5787 5787 5786 5785 5785 5784 5783 5782 5782
5802 5802 5802 5801 5801 5801 5801 5801 5802 5802 5803 5803 5803 5803 5803 5804 5803 5802 5801 5800 5799 5798 5797 5796 5795 5795 5795 5795 5795 5795 5795 5794 5794 5794 5793 5793 5793 5792 5792 5792 5791 5791 5791 5791 5791 5791 5791 5791 5791 5791 5791 5791 5791 5791 5791 5791 5791 5791 5791 5791 5791 5790 5790 5790 5789 5789 5788 5788 5787 5787 5787 5786 5786 5785 5785 5785 5784 5784 5784 5783 5782 5782 5781 5780 5779
5798 5798 5798 5797 5797 5797 5797 5797 5797 5797 5798 5799 5799 5799 5800 5800 5800 5799 5798 5797 5796 5795 5794 5793 5793 5792 5792 5792 5792 5792 5792 5792 5792 5792 5792 5792 5792 5791 5791 5790 5790 5790 5790 5789 5789 5789 5789 5789 5789 5789 5789 5789 5789 5789 5789 5789 5789 5789 5789 5789 5788 5788 5787 5787 5786 5786 5785 5785 5784 5784 5783 5783 5783 5782 5782 5781 5781 5781 5781 5780 5780 5779 5778 5777 5776
5794 5794 5794 5794 5793 5793 5793 5793 5793 5793 5794 5795 5795 5796 5796 5796 5797 5796 5795 5794 5793 5792 5791 5791 5790 5790 5790 5790 5790 5790 5790 5790 5790 5790 5790 5789 5790 5790 5790 5789 5789 5789 5788 5788 5787 5787 5787 5786 5786 5786 5787 5787 5787 5787 5787 5786 5786 5786 5786 5786 5786 5785 5784 5784 5783 5783 5782 5781 5781 5780 5780 5780 5779 5779 5779 5778 5778 5778 5777 5777 5776 5775 5775 5774 5773
5790 5791 5791 5790 5790 5790 5790 5789 5789 5789 5790 5791 5791 5792 5792 5792 5793 5793 5792 5791 5789 5788 5788 5788 5788 5787 5787 5787 5787 5787 5788 5788 5787 5787 5787 5787 5786 5787 5787 5787 5787 5787 5786 5786 5785 5785 5784 5784 5784 5783 5783 5783 5783 5783 5784 5784 5784 5784 5784 5783 5783 5782 5781 5781 5780 5779 5779 5778 5778 5777 5777 5776 5776 5775 5775 5775 5774 5774 5774 5773 5772 5772 5771 5770 5770
5787 5788 5788 5787 5787 5788 5787 5787 5786 5786 5787 5787 5787 5788 5788 5788 5789 5790 5789 5787 5785 5784 5784 5785 5785 5784 5784 5785 5785 5785 5785 5785 5785 5785 5785 5784 5784 5784 5784 5784 5783 5783 5783 5783 5782 5782 5782 5781 5781 5781 5780 5780 5780 5780 5780 5780 5780 5780 5780 5780 5779 5778 5778 5778 5777 5776 5775 5775 5774 5774 5773 5773 5772 5772 5771 5771 5771 5770 5770 5769 5768 5768 5767 5767 5766
5783 5784 5784 5784 5784 5785 5785 5784 5784 5784 5784 5784 5783 5784 5784 5785 5786 5786 5786 5785 5783 5781 5780 5781 5782 5782 5782 5782 5782 5782 5782 5782 5782 5782 5782 5782 5782 5782 5782 5781 5780 5780 5780 5779 5779 5779 5779 5778 5778 5777 5777 5777 5776 5776 5776 5776 5776 5776 5775 5775 5775 5775 5774 5774 5774 5773 5772 5772 5771 5771 5770 5770 5769 5768 5768 5768 5767 5767 5766 5765 5764 5764 5763 5763 5762
5779 5780 5780 5780 5781 5782 5782 5781 5781 5781 5781 5781 5781 5780 5781 5781 5782 5782 5782 5782 5781 5779 5778 5778 5778 5779 5779 5779 5779 5780 5780 5779 5779 5779 5779 5779 5779 5779 5779 5778 5778 5777 5777 5776 5776 5776 5776 5775 5775 5774 5774 5774 5773 5773 5773 5773 5772 5772 5771 5771 5771 5771 5770 5770 5770 5770 5769 5768 5768 5767 5767 5766 5766 5765 5764 5764 5763 5763 5762 5761 5761 5760 5759 5758 5758
5774 5775 5776 5776 5777 5778 5779 5779 5778 5778 5779 5779 5778 5778 5778 5778 5778 5778 5778 5778 5778 5776 5775 5775 5775 5775 5775 5775 5776 5776 5776 5776 5776 5776 5776 5776 5776 5776 5776 5775 5774 5774 5774 5773 5773 5773 5772 5772 5771 5771 5771 5771 5770 5770 5770 5769 5769 5769 5768 5768 5767 5767 5767 5766 5766 5766 5766 5765 5764 5764 5763 5763 5762 5762 5761 5760 5760 5759 5758 5758 5757 5756 5756 5755 5753
5770 5771 5771 5772 5773 5775 5775 5775 5775 5775 5776 5776 5776 5775 5775 5775 5775 5774 5774 5775 5774 5773 5773 5772 5773 5772 5772 5772 5773 5773 5773 5773 5772 5772 5772 5772 5772 5773 5772 5772 5771 5771 5770 5770 5770 5769 5769 5768 5768 5768 5768 5767 5767 5767 5766 5766 5766 5765 5765 5765 5764 5763 5763 5763 5763 5763 5762 5761 5761 5760 5760 5759 5759 5759 5758 5757 5756 5755 5754 5754 5753 5753 5752 5751 5750
5766 5767 5767 5768 5769 5771 5771 5771 5771 5772 5772 5772 5772 5772 5771 5771 5771 5771 5771 5771 5771 5770 5769 5769 5769 5769 5769 5769 5770 5770 5770 5770 5769 5768 5768 5769 5769 5769 5769 5768 5768 5768 5767 5767 5766 5766 5765 5765 5764 5764 5764 5764 5764 5763 5763 5762 5762 5762 5761 5761 5761 5760 5760 5759 5759 5759 5759 5758 5757 5756 5756 5755 5755 5755 5754 5753 5752 5752 5751 5750 5749 5749 5748 5748 5746
5762 5763 5763 5764 5766 5767 5767 5767 5767 5768 5769 5769 5769 5768 5768 5768 5767 5767 5766 5766 5767 5767 5766 5765 5765 5766 5766 5767 5767 5767 5767 5766 5766 5765 5765 5766 5766 5766 5765 5765 5764 5764 5764 5763 5763 5763 5762 5761 5761 5761 5760 5760 5760 5759 5759 5759 5758 5758 5757 5757 5756 5756 5756 5755 5755 5755 5755 5754 5754 5753 5752 5751 5751 5750 5749 5749 5748 5748 5747 5746 5745 5744 5744 5743 5742